Weather Roundup
Issued by NWS

Home | Current Version | Previous Version | Graphics & Text | Print | Product List | Glossary Off
Versions: 1 2 3 4 5 6 7 8 9 10 11 12 13 14 15 16 17 18 19 20 21 22 23 24 25 26 27 28 29 30 31 32 33 34 35 36 37 38 39 40 41 42 43 44 45 46 47 48 49 50

000
NZUS93 KARX 040459
HRRWXR

CURRENT HOURLY OBSERVATIONS ACROSS
MUCH OF THE UPPER MISSISSIPPI VALLEY
NATIONAL WEATHER SERVICE LA CROSSE WI
1200 AM CDT FRI SEP 04 2015


...SOUTHEAST MINNESOTA...


CITY           SKY/WX    TMP DP  RH WIND       PRES   REMARKS
ROCHESTER      PTCLDY    74  73  97 SE9       29.94S FOG
ROCHESTER/MAYO FAIR      75  74  98 E8        29.93S
WINONA         CLEAR     73  68  83 SE8       29.94S
AUSTIN         PTCLDY    73  72  94 SE5       29.92S
ALBERT LEA     PTCLDY    75  73  94 SE5       29.91S
DODGE CENTER   PTCLDY    73  72  94 SE5       29.93S FOG
PRESTON        MOCLDY    75  72  90 E6        29.95S
OWATONNA       CLEAR     75  72  88 SE6       29.91S
FARIBAULT      CLEAR     75  73  94 E6        29.91S
$$

...ELSEWHERE IN MINNESOTA...


CITY           SKY/WX    TMP DP  RH WIND       PRES   REMARKS
MINNEAPOLIS    CLEAR     74  69  85 E13       29.91R
INTNL FALLS    CLEAR     64  57  78 SE6       29.93R
DULUTH         CLEAR     57  51  80 E7        29.99S
RED WING       CLEAR     73  68  83 E7        29.91S
REDWOOD FALLS  CLEAR     77  74  90 E8        29.85S
MANKATO        CLEAR     77  73  88 SE8       29.88F
WORTHINGTON    PTCLDY    72  70  94 SE6       29.86F
FAIRMONT       CLEAR     75  66  73 S7        29.88S
$$

...SOUTHWEST WISCONSIN...


CITY           SKY/WX    TMP DP  RH WIND       PRES   REMARKS
LA CROSSE      CLEAR     74  68  81 SE6       29.94R
PRAIRIE DU CHI CLEAR     77  73  87 E3        29.92S
BOSCOBEL       FAIR      75  68  78 VRB3      29.95R
LONE ROCK      NOT AVBL
PLATTEVILLE    CLEAR     74  72  93 E9        29.95S
FORT MC COY    CLEAR     70  63  78 CALM      29.97S
CAMP DOUGLAS   CLEAR     66  66 100 E1        29.97S
VIROQUA          N/A     70  70  98 E8        29.97S
WIS DELLS      CLOUDY    68  65  90 CALM      29.97F
$$

...ELSEWHERE IN WISCONSIN...


CITY           SKY/WX    TMP DP  RH WIND       PRES   REMARKS
MILWAUKEE      MOCLDY    67  63  87 N3        29.97R
MADISON        CLOUDY    71  66  84 NE5       29.97S
GREEN BAY      CLEAR     63  61  93 CALM      29.98R
EAU CLAIRE     CLOUDY    71  65  81 E6        29.96R
BLACK RVR FLS  CLOUDY    71  65  82 CALM      29.96S
MEDFORD        FOG       59  59 100 CALM      30.02R VSB 1/4
WAUSAU         CLEAR     63  62  97 CALM      30.00R
WIS RAPIDS     CLEAR     64  62  93 SW3       30.00S
MARSHFIELD     CLEAR     65  61  87 E3        30.00S
RICE LAKE      CLEAR     67  63  89 SE3       29.99R
$$

...NORTHEAST IOWA...


CITY           SKY/WX    TMP DP  RH WIND       PRES   REMARKS
DECORAH        CLEAR     75  73  94 SE5       29.93S
MASON CITY     CLEAR     73  71  93 S6        29.92S
CHARLES CITY   PTCLDY    73  73 100 SE6       29.93S
OELWEIN        CLEAR     73  72  94 SE6       29.94S
$$

...ELSEWHERE IN IOWA...


CITY           SKY/WX    TMP DP  RH WIND       PRES   REMARKS
DES MOINES     PTCLDY    78  69  73 S8        29.90R
IOWA CITY      CLEAR     74  72  93 CALM      29.93S
FORT DODGE     CLEAR     75  70  83 SE5       29.90S
$$

...NORTHERN ILLINOIS...


CITY           SKY/WX    TMP DP  RH WIND       PRES   REMARKS
CHICAGO-OHARE  MOCLDY    71  67  87 NE8       29.96S
CHICAGO-MIDWAY PTCLDY    74  67  78 E9        29.96R
MOLINE         CLEAR     78  70  76 CALM      29.92S
ROCKFORD       PTCLDY    72  66  81 E6        29.97R
PEORIA         FAIR      80  68  66 S3        29.94S
$$

NOTE: "FAIR" INDICATES FEW OR NO CLOUDS BELOW 12,000 FEET WITH NO
SIGNIFICANT WEATHER AND/OR OBSTRUCTIONS TO VISIBILITY. WIND
SPEEDS ARE IN MILES-PER-HOUR.



USA.gov is the U.S. government's official web portal to all federal, state and local government web resources and services.